Pratt, KS

11:47 PM CDT on July 25, 2017 (GMT -0500)
Pratt Industrial

Weather History for KPTT - September, 2013

Change the Weather History Date:

Sunday, September 15, 2013

  Actual Average (KP28) Record (KP28)
Temperature  
Mean Temperature 78 °F -  
Max Temperature 91 °F 82 °F 105 °F (1978)
Min Temperature 64 °F 58 °F 33 °F (1993)
Cooling Degree Days 12    
Growing Degree Days 28 (Base 50)    
Moisture  
Dew Point 60 °F    
Average Humidity 66    
Maximum Humidity 94    
Minimum Humidity 27    
Precipitation  
Precipitation 0.16 in - - ()
Sea Level Pressure  
Sea Level Pressure 30.01 in    
Wind  
Wind Speed 12 mph (SSW)    
Max Wind Speed 20 mph    
Max Gust Speed 25 mph    
Visibility 10 miles    
Events Rain , Thunderstorm    
Averages and records for this station are not official NWS values.
T = Trace of Precipitation, MM = Missing Value Source: NWS Daily Summary

Daily Weather History Graph

Daily Weather History Graph

Search for Another Location

Airport or City:

Trip Planner

Search our weather history database for the weather conditions in past years. The results will help you decide how hot, cold, wet, or windy it might be!

Date:

Astronomy

Sep. 15, 2013 Rise Set
Actual Time 7:17 AM CDT 7:42 PM CDT
Civil Twilight 6:50 AM CDT 8:08 PM CDT
Nautical Twilight 6:19 AM CDT 8:39 PM CDT
Astronomical Twilight 5:48 AM CDT 9:10 PM CDT
Moon 5:07 PM CDT (9/15) 3:00 AM CDT (9/15)
Length of Visible Light 13h 17m
Length of Day
12h 25m
Waxing Gibbous, 82% of the Moon is Illuminated
Sep 15
Waxing Gibbous
Sep 19
Full
Sep 26
Last Quarter
Oct 4
New
Oct 11
First Quarter

Hourly Weather History & Observations

Time (CDT) Temp. Heat Index Dew Point Humidity Pressure Visibility Wind Dir Wind Speed Gust Speed Precip Events Conditions
12:15 AM 69.8 °F - 59.0 °F 68% 29.98 in 10.0 mi South 12.7 mph - N/A   Mostly Cloudy
12:35 AM 69.8 °F - 59.0 °F 68% 29.98 in 10.0 mi South 12.7 mph 18.4 mph N/A   Scattered Clouds
12:55 AM 69.8 °F - 59.0 °F 68% 29.97 in 10.0 mi South 10.4 mph - N/A   Scattered Clouds
1:15 AM 69.8 °F - 59.0 °F 68% 29.97 in 10.0 mi South 11.5 mph - N/A   Mostly Cloudy
1:35 AM 69.8 °F - 59.0 °F 68% 29.97 in 10.0 mi South 12.7 mph - N/A   Scattered Clouds
1:55 AM 69.8 °F - 59.0 °F 68% 29.96 in 10.0 mi South 10.4 mph - N/A   Scattered Clouds
2:15 AM 69.8 °F - 59.0 °F 68% 29.96 in 10.0 mi South 12.7 mph - N/A   Scattered Clouds
2:35 AM 68.0 °F - 59.0 °F 73% 29.96 in 10.0 mi South 12.7 mph - N/A   Scattered Clouds
2:55 AM 68.0 °F - 59.0 °F 73% 29.96 in 10.0 mi South 13.8 mph - N/A   Clear
3:15 AM 68.0 °F - 59.0 °F 73% 29.96 in 10.0 mi South 12.7 mph - N/A   Clear
3:35 AM 68.0 °F - 59.0 °F 73% 29.95 in 10.0 mi South 11.5 mph - N/A   Clear
3:55 AM 66.2 °F - 59.0 °F 78% 29.95 in 10.0 mi South 11.5 mph - N/A   Clear
4:15 AM 66.2 °F - 59.0 °F 78% 29.96 in 10.0 mi South 11.5 mph - N/A   Clear
4:35 AM 66.2 °F - 59.0 °F 78% 29.96 in 10.0 mi South 11.5 mph - N/A   Clear
4:55 AM 64.4 °F - 59.0 °F 83% 29.96 in 10.0 mi South 10.4 mph - N/A   Clear
5:15 AM 64.4 °F - 59.0 °F 83% 29.96 in 10.0 mi South 10.4 mph - N/A   Clear
5:35 AM 64.4 °F - 59.0 °F 83% 29.96 in 10.0 mi South 9.2 mph - N/A   Clear
5:55 AM 64.4 °F - 59.0 °F 83% 29.96 in 10.0 mi SSW 9.2 mph - N/A   Clear
6:15 AM 64.4 °F - 59.0 °F 83% 29.96 in 10.0 mi SSW 8.1 mph - N/A   Clear
6:35 AM 64.4 °F - 59.0 °F 83% 29.96 in 10.0 mi SSW 8.1 mph - N/A   Clear
6:55 AM 64.4 °F - 59.0 °F 83% 29.96 in 10.0 mi SSW 9.2 mph - N/A   Clear
7:15 AM 64.4 °F - 59.0 °F 83% 29.97 in 10.0 mi South 8.1 mph - N/A   Clear
7:35 AM 64.4 °F - 59.0 °F 83% 29.98 in 10.0 mi South 10.4 mph - N/A   Clear
7:55 AM 66.2 °F - 59.0 °F 78% 29.98 in 10.0 mi South 10.4 mph - N/A   Clear
8:15 AM 66.2 °F - 59.0 °F 78% 29.98 in 10.0 mi SSW 11.5 mph - N/A   Clear
8:35 AM 68.0 °F - 59.0 °F 73% 29.98 in 10.0 mi SSW 11.5 mph - N/A   Clear
8:55 AM 69.8 °F - 60.8 °F 73% 29.98 in 10.0 mi SSW 12.7 mph - N/A   Clear
9:15 AM 71.6 °F - 59.0 °F 64% 29.98 in 10.0 mi SSW 16.1 mph - N/A   Clear
9:35 AM 75.2 °F - 59.0 °F 57% 29.98 in 10.0 mi SSW 16.1 mph 21.9 mph N/A   Clear
9:55 AM 73.4 °F - 60.8 °F 65% 29.99 in 10.0 mi SSW 15.0 mph - N/A   Clear
10:15 AM 73.4 °F - 59.0 °F 61% 30.00 in 10.0 mi SSW 15.0 mph 23.0 mph N/A   Clear
10:35 AM 77.0 °F - 60.8 °F 57% 30.00 in 10.0 mi SSW 18.4 mph 23.0 mph N/A   Scattered Clouds
10:55 AM 78.8 °F - 60.8 °F 54% 30.00 in 10.0 mi SW 17.3 mph 20.7 mph N/A   Clear
11:15 AM 80.6 °F 81.5 °F 60.8 °F 51% 30.00 in 10.0 mi SW 17.3 mph - N/A   Clear
11:35 AM 78.8 °F - 60.8 °F 54% 30.00 in 10.0 mi SW 15.0 mph 21.9 mph N/A   Clear
11:55 AM 84.2 °F 84.4 °F 60.8 °F 45% 29.99 in 10.0 mi SW 16.1 mph - N/A   Clear
12:15 PM 86.0 °F 85.4 °F 59.0 °F 40% 29.99 in 10.0 mi SW 15.0 mph 21.9 mph N/A   Clear
12:35 PM 87.8 °F 87.1 °F 59.0 °F 38% 29.99 in 10.0 mi SSW 19.6 mph 24.2 mph N/A   Clear
12:55 PM 89.6 °F 88.1 °F 57.2 °F 33% 29.99 in 10.0 mi WSW 15.0 mph 24.2 mph N/A   Clear
1:15 PM 89.6 °F 88.1 °F 57.2 °F 33% 29.99 in 10.0 mi SW 15.0 mph 24.2 mph N/A   Clear
1:35 PM 89.6 °F 88.1 °F 57.2 °F 33% 29.99 in 10.0 mi SW 10.4 mph 18.4 mph N/A   Clear
1:55 PM 91.4 °F 89.4 °F 55.4 °F 29% 29.99 in 10.0 mi SW 11.5 mph - N/A   Clear
2:15 PM 89.6 °F 87.7 °F 55.4 °F 31% 29.99 in 10.0 mi SW 16.1 mph 19.6 mph N/A   Scattered Clouds
2:35 PM 91.4 °F 89.4 °F 55.4 °F 29% 29.98 in 10.0 mi WSW 10.4 mph 19.6 mph N/A   Clear
2:55 PM 91.4 °F 89.4 °F 55.4 °F 29% 29.98 in 10.0 mi SW 10.4 mph 20.7 mph N/A   Clear
3:15 PM 91.4 °F 89.9 °F 57.2 °F 31% 29.98 in 10.0 mi WSW 17.3 mph - N/A   Clear
3:35 PM 91.4 °F 89.4 °F 55.4 °F 29% 29.97 in 10.0 mi WSW 12.7 mph 25.3 mph N/A   Clear
3:55 PM 89.6 °F 88.1 °F 57.2 °F 33% 29.97 in 10.0 mi SW 11.5 mph 17.3 mph N/A   Scattered Clouds
4:15 PM 86.0 °F 85.4 °F 59.0 °F 40% 29.98 in 10.0 mi West 18.4 mph 21.9 mph N/A   Scattered Clouds
4:35 PM 82.4 °F 82.5 °F 59.0 °F 45% 29.97 in 10.0 mi SW 12.7 mph - N/A Thunderstorm Unknown
4:55 PM 89.6 °F - 51.8 °F 27% 29.97 in 10.0 mi SSW 12.7 mph - N/A   Mostly Cloudy
5:15 PM 84.2 °F 82.8 °F 53.6 °F 35% 29.97 in 10.0 mi South 10.4 mph 15.0 mph N/A Thunderstorm Mostly Cloudy
5:35 PM 75.2 °F - 62.6 °F 65% 30.01 in 10.0 mi NNE 9.2 mph 16.1 mph N/A Rain , Thunderstorm Light Thunderstorms and Rain
5:55 PM 73.4 °F - 64.4 °F 73% 30.01 in 7.0 mi NE 6.9 mph 17.3 mph 0.04 in Rain Heavy Rain
6:15 PM 69.8 °F - 64.4 °F 83% 30.02 in 4.0 mi NNE 12.7 mph - 0.05 in Rain , Thunderstorm Heavy Thunderstorms and Rain
6:35 PM 71.6 °F - 64.4 °F 78% 30.02 in 10.0 mi NNE 6.9 mph - 0.05 in Thunderstorm Thunderstorm
6:55 PM 71.6 °F - 66.2 °F 83% 30.02 in 10.0 mi ENE 6.9 mph - 0.05 in   Scattered Clouds
7:15 PM 71.6 °F - 68.0 °F 88% 30.04 in 7.0 mi NNE 11.5 mph - N/A   Clear
7:35 PM 71.6 °F - 66.2 °F 83% 30.05 in 10.0 mi NNE 13.8 mph - N/A   Scattered Clouds
7:55 PM 71.6 °F - 64.4 °F 78% 30.05 in 10.0 mi NNE 17.3 mph 20.7 mph N/A   Clear
8:15 PM 69.8 °F - 64.4 °F 83% 30.07 in 10.0 mi NNE 17.3 mph 24.2 mph N/A Thunderstorm Mostly Cloudy
8:35 PM 69.8 °F - 64.4 °F 83% 30.11 in 10.0 mi NE 11.5 mph 17.3 mph N/A   Overcast
8:55 PM 69.8 °F - 64.4 °F 83% 30.15 in 7.0 mi NE 11.5 mph - 0.02 in Rain , Thunderstorm Heavy Thunderstorms and Rain
9:15 PM 68.0 °F - 64.4 °F 88% 30.16 in 7.0 mi North 10.4 mph - 0.03 in Rain Rain
9:35 PM 68.0 °F - 64.4 °F 88% 30.13 in 10.0 mi NE 13.8 mph 19.6 mph 0.05 in Rain , Thunderstorm Light Thunderstorms and Rain
9:55 PM 66.2 °F - 62.6 °F 88% 30.13 in 10.0 mi NNE 15.0 mph 20.7 mph 0.05 in Rain Light Rain
10:15 PM 66.2 °F - 62.6 °F 88% 30.13 in 10.0 mi NNE 11.5 mph 19.6 mph N/A   Overcast
10:35 PM 64.4 °F - 62.6 °F 94% 30.13 in 10.0 mi NNE 15.0 mph 21.9 mph N/A   Overcast
10:55 PM 64.4 °F - 62.6 °F 94% 30.15 in 10.0 mi NNE 13.8 mph - N/A   Overcast
11:15 PM 64.4 °F - 62.6 °F 94% 30.16 in 10.0 mi NNE 12.7 mph - N/A   Overcast
11:35 PM 64.4 °F - 60.8 °F 88% 30.15 in 10.0 mi NNE 13.8 mph - N/A   Overcast
11:55 PM 64.4 °F - 60.8 °F 88% 30.16 in 7.0 mi NE 12.7 mph 16.1 mph N/A   Overcast